Regional Weather Roundup
Issued by NWS Tiyan, Guam

Home | Current Version | Previous Version | Text Only | Print | Product List | Glossary On
Versions: 1 2 3 4 5 6 7 8 9 10 11 12 13 14 15 16 17 18 19 20 21 22 23 24 25 26 27 28 29 30 31 32 33 34 35 36 37 38 39 40 41 42 43 44 45 46 47 48 49 50
000
ASGM40 PGUM 220112
RWRGUM
WEATHER ROUNDUP FOR THE MARIANAS
NATIONAL WEATHER SERVICE TIYAN GU
1100 AM CHST SAT JUL 22 2017

GUZ001>004-220200-
MARIANA ISLANDS-

CITY           SKY/WX    TMP DP  RH WIND       PRES   REMARKS
GUAM AIRPORT   PTSUNNY   88  79  74 E13       29.87F HX 102
ANDERSEN AFB   PTSUNNY   86  79  79 SE13      29.88F HX  99
ROTA AIRPORT   PTSUNNY   82  79  89 E16       29.88S HX  93
TINIAN AP      MOSUNNY   88  75  66 NE12      29.86S HX  97
SAIPAN AP      MOSUNNY   91  75  59 E12       29.87S HX 102

$$




USA.gov is the U.S. government's official web portal to all federal, state and local government web resources and services.